Date String (YYYY-MM-DD hh:mm:ss) UTC,Instrument flags,Ambient pressure (hPa),Sample flow (lpm),Bypass flow (lpm),Sample temperature (°C),Ambient temperature (°C),ASC tube jacket temperature (°C),LED temperature (°C),Box temperature (°C),Sample RH (%),Span deviation,Mass concentration (μg/m³),Mass concentration (μg/m³),Mass concentration (μg/m³)
DateTimeUTC,F1_M11,P_M11,Q1_M11,Q2_M11,T1_M11,T2_M11,T3_M11,T4_M11,T5_M11,U1_M11,ZSPAN_M11,X0_M11,X2_M11,X1_M11
2022-11-03 19:00:00,,0819.4,5.00,0.00,25.2,23.8,00.0,33.9,27.1,12.0,0000.0,0012.84,0004.08,0003.33
2022-11-03 19:01:00,,0819.3,4.99,0.00,25.2,23.7,00.0,33.9,27.1,12.1,0000.0,0012.96,0004.04,0003.32
2022-11-03 19:02:00,,0819.3,5.00,0.00,25.2,23.7,00.0,33.9,27.1,12.2,0000.0,0011.82,0004.04,0003.30
2022-11-03 19:03:00,,0819.3,5.00,0.00,25.2,23.8,00.0,33.9,27.1,12.2,0000.0,0011.40,0004.04,0003.29
2022-11-03 19:04:00,,0819.4,4.99,0.00,25.2,23.8,00.0,33.9,27.1,12.2,0000.0,0011.05,0004.04,0003.28
2022-11-03 19:05:00,,0819.3,5.02,0.00,25.2,23.8,00.0,33.9,27.1,12.2,0000.0,0011.09,0004.06,0003.27
2022-11-03 19:06:00,,0819.3,4.98,0.00,25.2,23.8,00.0,33.9,27.1,12.2,0000.0,0011.03,0004.04,0003.26
2022-11-03 19:07:00,,0819.3,5.01,0.00,25.2,23.8,00.0,33.9,27.1,12.2,0000.0,0010.76,0004.04,0003.25
2022-11-03 19:08:00,,0819.2,5.01,0.00,25.2,23.8,00.0,33.9,27.1,12.1,0000.0,0010.98,0004.05,0003.26
2022-11-03 19:09:00,,0819.2,4.99,0.00,25.2,23.8,00.0,33.9,27.1,12.1,0000.0,0011.54,0004.09,0003.26
2022-11-03 19:10:00,,0819.3,4.99,0.00,25.2,23.8,00.0,33.9,27.1,12.1,0000.0,0011.87,0004.13,0003.27
2022-11-03 19:11:00,,0819.3,5.00,0.00,25.2,23.8,00.0,33.9,27.1,12.1,0000.0,0011.99,0004.11,0003.29
2022-11-03 19:12:00,,0819.3,5.00,0.00,25.2,23.8,00.0,33.9,27.1,12.0,0000.0,0012.28,0004.11,0003.29
2022-11-03 19:13:00,,0819.3,5.00,0.00,25.2,23.8,00.0,34.0,27.1,12.0,0000.0,0012.07,0004.11,0003.29
2022-11-03 19:14:00,,0819.1,5.00,0.00,25.2,23.8,00.0,34.0,27.1,12.0,0000.0,0011.76,0004.07,0003.29
2022-11-03 19:15:00,,0819.1,5.01,0.00,25.2,23.8,00.0,34.0,27.2,12.0,0000.0,0011.72,0004.04,0003.30
2022-11-03 19:16:00,,0819.1,4.98,0.00,25.2,23.8,00.0,34.0,27.2,12.1,0000.0,0012.16,0004.03,0003.30
2022-11-03 19:17:00,,0819.1,5.01,0.00,25.2,23.8,00.0,34.0,27.2,12.2,0000.0,0012.70,0004.06,0003.30
2022-11-03 19:18:00,,0819.0,5.01,0.00,25.2,23.8,00.0,34.0,27.2,12.2,0000.0,0013.00,0004.05,0003.30
2022-11-03 19:19:00,,0818.9,4.99,0.00,25.2,23.8,00.0,34.0,27.2,12.3,0000.0,0013.02,0004.02,0003.30
2022-11-03 19:20:00,,0819.0,4.99,0.00,25.2,23.8,00.0,34.0,27.2,12.3,0000.0,0012.83,0004.06,0003.31
2022-11-03 19:21:00,,0819.0,5.00,0.00,25.2,23.8,00.0,34.0,27.2,12.2,0000.0,0012.52,0004.08,0003.31
2022-11-03 19:22:00,,0819.0,5.00,0.00,25.2,23.8,00.0,34.0,27.2,12.1,0000.0,0011.72,0004.08,0003.32
2022-11-03 19:23:00,,0819.0,5.01,0.00,25.2,23.8,00.0,34.0,27.2,12.0,0000.0,0010.87,0004.06,0003.33
2022-11-03 19:24:00,,0819.1,5.00,0.00,25.2,23.8,00.0,34.0,27.2,12.0,0000.0,0011.33,0004.06,0003.34
2022-11-03 19:25:00,,0819.1,5.00,0.00,25.2,23.8,00.0,34.0,27.2,12.1,0000.0,0011.72,0004.12,0003.37
2022-11-03 19:26:00,,0819.1,4.99,0.00,25.2,23.8,00.0,34.0,27.2,12.1,0000.0,0011.95,0004.15,0003.38
2022-11-03 19:27:00,,0819.2,5.00,0.00,25.2,23.8,00.0,34.0,27.2,12.1,0000.0,0011.14,0004.17,0003.39
2022-11-03 19:28:00,,0819.1,4.99,0.00,25.2,23.8,00.0,34.0,27.2,12.0,0000.0,0010.48,0004.15,0003.40
2022-11-03 19:29:00,,0819.1,5.00,0.00,25.2,23.8,00.0,34.0,27.2,12.0,0000.0,0010.34,0004.19,0003.41
2022-11-03 19:30:00,,0819.2,5.00,0.00,25.2,23.8,00.0,34.0,27.2,12.0,0000.0,0010.38,0004.23,0003.42
2022-11-03 19:31:00,,0819.2,5.00,0.00,25.2,23.8,00.0,34.0,27.1,12.1,0000.0,0010.17,0004.21,0003.42
2022-11-03 19:32:00,,0819.2,5.01,0.00,25.2,23.8,00.0,34.0,27.1,12.1,0000.0,0010.27,0004.12,0003.42
2022-11-03 19:33:00,,0819.2,5.01,0.00,25.2,23.8,00.0,34.0,27.1,12.1,0000.0,0010.26,0004.12,0003.43
2022-11-03 19:34:00,,0819.2,5.00,0.00,25.2,23.8,00.0,34.0,27.1,12.0,0000.0,0010.94,0004.20,0003.43
2022-11-03 19:35:00,,0819.2,4.99,0.00,25.2,23.8,00.0,34.0,27.1,12.0,0000.0,0010.80,0004.24,0003.43
2022-11-03 19:36:00,,0819.3,5.00,0.00,25.2,23.8,00.0,34.0,27.1,11.9,0000.0,0010.07,0004.20,0003.42
2022-11-03 19:37:00,,0819.3,5.00,0.00,25.2,23.8,00.0,34.0,27.1,11.9,0000.0,0009.87,0004.17,0003.42
2022-11-03 19:38:00,,0819.2,5.01,0.00,25.2,23.8,00.0,34.0,27.1,11.9,0000.0,0009.90,0004.16,0003.42
2022-11-03 19:39:00,,0819.2,5.00,0.00,25.2,23.8,00.0,34.0,27.1,11.9,0000.0,0009.98,0004.20,0003.42
2022-11-03 19:40:00,,0819.2,5.00,0.00,25.2,23.8,00.0,34.0,27.1,11.9,0000.0,0009.63,0004.22,0003.42
2022-11-03 19:41:00,,0819.3,5.00,0.00,25.2,23.8,00.0,34.0,27.1,11.9,0000.0,0009.94,0004.24,0003.43
2022-11-03 19:42:00,,0819.3,4.99,0.00,25.2,23.8,00.0,34.0,27.1,11.9,0000.0,0010.18,0004.25,0003.43
2022-11-03 19:43:00,,0819.2,5.00,0.00,25.2,23.8,00.0,34.0,27.1,11.9,0000.0,0010.07,0004.26,0003.44
2022-11-03 19:44:00,,0819.3,5.00,0.00,25.2,23.8,00.0,34.0,27.1,11.9,0000.0,0011.27,0004.29,0003.44
2022-11-03 19:45:00,,0819.2,5.00,0.00,25.2,23.7,00.0,34.0,27.1,11.9,0000.0,0011.78,0004.24,0003.44
2022-11-03 19:46:00,,0819.3,5.00,0.00,25.2,23.7,00.0,34.0,27.1,11.9,0000.0,0012.31,0004.25,0003.43
2022-11-03 19:47:00,,0819.2,5.00,0.00,25.2,23.7,00.0,34.0,27.1,11.9,0000.0,0012.44,0004.26,0003.44
2022-11-03 19:48:00,,0819.3,5.01,0.00,25.2,23.6,00.0,34.0,27.1,11.9,0000.0,0012.53,0004.30,0003.45
2022-11-03 19:49:00,,0819.4,5.00,0.00,25.2,23.6,00.0,34.0,27.1,12.0,0000.0,0013.07,0004.35,0003.44
2022-11-03 19:50:00,,0819.4,5.00,0.00,25.2,23.7,00.0,34.0,27.1,11.9,0000.0,0013.47,0004.37,0003.45
2022-11-03 19:51:00,,0819.4,5.01,0.00,25.2,23.7,00.0,34.0,27.1,12.0,0000.0,0013.86,0004.38,0003.45
2022-11-03 19:52:00,,0819.4,5.00,0.00,25.2,23.7,00.0,33.9,27.1,11.9,0000.0,0013.67,0004.34,0003.45
2022-11-03 19:53:00,,0819.4,4.99,0.00,25.2,23.7,00.0,33.9,27.1,11.9,0000.0,0013.27,0004.32,0003.45
2022-11-03 19:54:00,,0819.4,4.98,0.00,25.2,23.7,00.0,33.9,27.1,11.9,0000.0,0013.11,0004.31,0003.44
2022-11-03 19:55:00,,0819.4,5.00,0.00,25.2,23.7,00.0,33.9,27.1,12.0,0000.0,0012.34,0004.30,0003.43
2022-11-03 19:56:00,,0819.4,5.00,0.00,25.2,23.7,00.0,33.9,27.1,11.9,0000.0,0012.10,0004.32,0003.43
2022-11-03 19:57:00,,0819.4,5.00,0.00,25.1,23.6,00.0,33.9,27.0,11.9,0000.0,0012.21,0004.30,0003.43
2022-11-03 19:58:00,,0819.4,5.00,0.00,25.1,23.6,00.0,33.9,27.0,11.8,0000.0,0012.89,0004.33,0003.43
2022-11-03 19:59:00,,0819.4,5.01,0.00,25.1,23.6,00.0,33.9,27.0,11.9,0000.0,0013.11,0004.33,0003.43
